Regional Weather Roundup
Issued by NWS Bismarck, ND

Home | Current Version | Previous Version | Text Only | Print | Product List | Glossary On
Versions: 1 2 3 4 5 6 7 8 9 10 11 12 13 14 15 16 17 18 19 20 21 22 23 24 25 26 27 28 29 30 31 32 33 34 35 36 37 38 39 40 41 42 43 44 45 46 47 48 49 50
000
ASUS43 KBIS 261310
RWRBIS

NWR BROADCAST TEXT
NATIONAL WEATHER SERVICE BISMARCK ND
800 AM CDT WED JUL 26 2017

NOTE: "FAIR" INDICATES FEW OR NO CLOUDS BELOW 12,000 FEET WITH NO
SIGNIFICANT WEATHER AND/OR OBSTRUCTIONS TO VISIBILITY.


CITY           SKY/WX    TMP DP  RH WIND       PRES   REMARKS
WILLISTON      SUNNY     61  50  67 NE6       30.15R
MINOT          SUNNY     66  55  67 W6        30.12R
MINOT AFB      SUNNY     62  57  84 NW6       30.11R
BISMARCK       SUNNY     67  57  70 W5        30.10R
DICKINSON      SUNNY     65  52  62 E6        30.13R
GARRISON         N/A     62  57  83 N6        30.12R
HETTINGER ARPT CLOUDY    67  56  67 CALM      30.15R
JAMESTOWN      SUNNY     67  58  72 NW7       30.06R
HAZEN          FAIR      61  55  82 CALM      30.14S
LINTON         FAIR     N/A N/A N/A CALM      30.10R
MANDAN         FAIR      66  57  72 N7        30.11R
STANLEY        FAIR      61  57  88 CALM      30.18R
WATFORD CITY   FAIR      59  50  72 CALM      30.14S
$$

CITY           SKY/WX    TMP DP  RH WIND       PRES   REMARKS
GRAND FORKS    SUNNY     67  61  81 NW12      30.01R
GRAND FORKS AF SUNNY     67  60  78 N9        30.02R
DEVILS LAKE    SUNNY     65  59  81 NW12      30.08R
FARGO          SUNNY     68  59  73 NW6       30.02R
CAVALIER       FAIR      64  61  88 NW9       30.02R
GRAFTON        FAIR      66  61  82 NW10      30.04R
GWINNER        SUNNY     66  63  88 CALM      30.05R
LANGDON        FAIR      61  61 100 NW9       30.07R
ROLLA            N/A     63  61  94 NW13      30.10S
$$

CITY           SKY/WX    TMP DP  RH WIND       PRES   REMARKS
ABERDEEN       CLOUDY    70  63  78 NE8       30.05R
MOBRIDGE       SUNNY     71  62  73 N5        30.05R
BUFFALO          N/A     67  55  65 CALM      30.10R
RAPID CITY     CLOUDY    71  48  43 NW8       30.14R
GLASGOW        SUNNY     61  49  64 S5        30.13R
SIDNEY         SUNNY     63  50  62 N7        30.13S
WOLF POINT     SUNNY     61  46  57 E7        30.13S
GLENDIVE       SUNNY     65  46  50 NE8       30.13R
MILES CITY     SUNNY     67  41  38 E6        30.12R
BAKER          SUNNY     62  44  51 SE5       30.15R
$$

CITY           SKY/WX    TMP DP  RH WIND       PRES   REMARKS
BILLINGS       MOSUNNY   58  46  64 SW6       30.16R
GREAT FALLS    CLEAR     56  39  53 SW5       30.14S
REGINA         SUNNY     59  52  77 S2        30.15R
ESTEVAN        SUNNY     59  55  88 W2        30.15R
$$





USA.gov is the U.S. government's official web portal to all federal, state and local government web resources and services.